Wind_Speed
18 20 21 22 23 24 23 23 24 26 28 29 30 32 35 39 40 42 44 45 45 44 42 40 41 42 42 42 42 41 40 39 38 37 35 33 32 31 32 33 34 32 30 30
16 17 18 18 19 21 22 22 22 23 25 27 29 32 35 38 41 43 45 46 48 46 44 43 43 42 43 44 44 44 43 43 42 40 39 37 35 35 35 35 35 35 33 32
14 15 16 18 19 21 23 23 23 23 24 27 30 33 36 39 41 43 45 46 47 47 45 43 43 43 43 43 44 43 43 43 42 41 40 39 37 36 35 36 35 35 35 34
12 15 17 18 18 19 20 21 21 22 23 25 29 33 36 38 39 41 44 46 46 45 43 42 43 43 44 44 43 42 42 41 41 40 39 38 37 36 35 35 33 34 33 33
13 16 17 17 18 19 19 19 19 21 24 26 28 31 32 33 35 38 39 42 43 42 40 39 38 39 41 42 42 41 40 40 39 39 38 36 35 34 33 32 32 32 32 32
14 15 17 17 18 18 18 19 20 21 22 22 24 26 27 27 29 31 34 37 38 37 34 31 30 32 35 36 38 39 38 38 38 37 36 35 34 33 32 32 31 31 32 32
13 15 16 17 18 18 18 18 18 18 19 19 21 22 23 23 24 25 26 27 30 32 32 28 27 25 27 30 33 35 36 37 38 37 36 35 35 34 33 33 32 33 33 33
14 15 16 16 16 16 16 15 15 16 16 16 17 19 20 21 22 21 20 20 20 21 23 24 24 24 25 27 30 33 35 36 37 38 38 37 36 36 35 35 35 35 36 35
17 16 16 16 15 15 15 16 15 14 15 15 16 16 17 19 18 17 16 14 13 13 14 16 17 19 22 25 27 31 33 35 37 38 39 39 39 38 38 38 38 38 38 37
17 15 15 16 15 15 15 16 15 14 15 15 15 16 17 16 16 15 14 14 12 11 10 10 11 12 15 19 22 26 29 32 34 36 38 39 40 40 40 40 39 37 36 35
17 15 15 14 14 14 17 17 15 14 15 15 15 17 17 17 16 16 16 15 14 11 9 7 6 7 8 10 12 15 18 21 25 29 31 33 35 36 36 35 33 32 32 31
18 17 16 17 17 18 18 17 16 16 17 17 16 18 18 18 17 17 17 17 16 13 11 11 9 6 4 1 2 4 7 9 12 16 18 20 22 23 24 25 25 25 24 24
19 18 17 19 20 19 18 18 19 19 18 18 18 18 19 19 18 18 17 17 18 17 16 16 15 14 11 9 8 7 5 4 2 1 3 5 7 9 11 12 12 14 14 15
22 20 20 20 20 19 19 19 20 21 20 20 20 20 19 18 19 19 18 18 18 18 18 18 18 17 16 16 17 17 17 16 14 12 10 9 7 5 4 3 3 4 6 7
22 21 21 19 19 20 20 20 21 21 21 20 20 20 19 19 19 18 18 18 19 19 18 18 18 18 18 18 17 17 17 16 15 15 14 13 11 10 8 7 6 6 6 7
23 22 21 19 19 20 21 22 22 22 21 20 20 19 18 19 19 18 18 18 19 18 18 18 18 17 17 17 17 17 17 16 16 15 14 14 13 13 12 10 10 9 9 9
23 22 21 19 20 20 22 22 22 22 21 20 20 19 19 18 18 18 18 18 18 18 18 18 18 18 18 18 19 19 19 18 18 17 16 16 15 14 13 12 12 12 12 12
22 22 22 21 21 22 22 22 22 21 20 19 19 19 18 18 17 18 18 19 19 19 19 19 19 19 19 19 20 20 20 19 19 18 18 17 17 16 15 15 14 14 14 15
20 21 21 21 21 22 22 22 21 20 19 19 18 18 18 18 18 18 19 19 19 20 20 20 20 20 20 19 19 19 19 19 19 19 19 19 19 19 18 17 17 16 16 16
17 19 20 21 21 21 21 22 21 21 20 19 18 18 18 18 18 19 19 19 20 20 20 20 20 20 19 18 18 18 18 19 19 20 20 20 20 20 19 19 18 18 17 16
13 15 17 18 19 20 21 21 21 21 20 19 19 19 18 18 18 18 18 19 18 19 19 19 19 19 18 17 18 18 19 19 19 20 20 21 21 21 20 20 20 20 20 19
9 11 13 15 17 18 19 20 21 21 20 19 19 19 18 18 17 17 17 17 17 17 17 17 17 17 17 17 18 18 19 19 20 20 21 21 22 22 21 21 22 22 22 21
6 8 10 12 14 15 17 18 19 20 20 19 19 18 17 17 17 16 15 15 15 15 15 16 16 16 17 17 18 19 19 20 20 21 21 21 22 22 22 22 23 23 24 23
5 6 7 8 10 13 14 15 17 19 19 19 19 18 17 16 16 15 14 14 13 13 14 14 14 15 16 16 17 18 19 20 20 20 21 21 22 22 23 23 24 24 24 25
6 6 6 7 8 9 11 12 14 16 17 18 18 18 17 16 15 15 14 13 12 12 12 12 13 14 15 15 16 17 18 19 20 20 19 20 21 21 23 23 24 24 25 25
6 7 7 7 8 9 9 10 11 13 15 16 17 18 18 16 15 15 13 12 11 11 11 11 11 12 13 14 15 16 17 18 19 19 19 19 20 20 21 22 23 24 25 25
Wind_Direction
279 282 285 287 287 288 287 286 286 286 285 283 279 274 272 271 270 268 266 262 262 264 265 265 264 263 262 261 260 262 263 264 264 264 264 263 262 262 264 267 268 265 263 263
285 285 289 293 296 297 297 297 296 293 290 287 282 278 276 275 274 273 272 269 269 270 268 266 265 263 262 260 259 259 260 261 262 263 263 263 261 260 260 264 266 266 265 264
299 302 305 306 307 307 304 302 300 294 289 286 284 282 282 281 278 277 275 273 272 270 267 263 261 259 259 258 258 258 258 258 259 260 260 260 260 259 260 260 263 264 265 266
317 315 313 312 312 311 306 305 303 299 294 288 285 283 284 283 280 278 274 272 271 270 267 263 258 255 253 253 254 254 255 255 256 256 256 256 256 256 257 259 261 263 265 270
325 319 317 316 317 315 313 310 308 306 301 296 291 287 288 285 280 275 271 269 268 268 265 261 258 254 250 248 248 249 250 252 253 253 253 252 251 252 253 257 262 266 269 273
327 323 322 320 320 320 319 317 315 312 308 304 303 299 299 293 286 280 274 269 265 263 264 263 260 254 250 247 245 245 246 247 248 249 250 250 249 250 253 257 263 267 272 276
336 332 331 329 329 328 326 324 321 321 320 317 318 314 312 306 297 292 285 277 274 269 266 271 271 264 254 250 248 246 245 245 245 246 247 248 250 252 255 259 263 268 272 275
351 346 341 337 334 333 336 337 335 333 333 333 335 330 325 319 315 308 302 293 286 278 276 278 280 271 262 257 252 249 248 247 247 246 247 248 251 254 257 261 265 269 272 274
3 356 350 345 344 347 351 355 353 351 351 352 354 351 346 338 336 333 327 322 317 310 297 290 282 271 264 259 257 255 253 251 250 249 248 250 252 256 260 263 267 270 272 273
11 5 359 357 360 2 4 9 8 10 9 10 11 11 10 7 3 1 1 357 349 336 332 317 297 280 270 266 263 262 259 256 254 253 253 253 256 259 262 265 268 270 272 271
22 19 15 15 18 20 21 19 19 23 27 26 27 29 28 27 26 26 27 23 20 17 11 4 341 312 294 284 273 265 265 261 258 257 257 259 260 262 264 266 269 270 270 269
33 30 26 29 33 33 27 26 32 35 36 36 38 41 39 38 39 37 37 36 38 43 45 48 49 46 52 16 301 271 268 263 260 256 257 259 261 262 264 266 268 268 268 267
42 37 34 38 39 39 32 35 39 41 38 38 42 47 43 44 43 45 48 49 52 56 58 59 65 69 71 67 63 73 90 90 89 220 247 254 262 265 267 270 270 270 269 269
44 41 42 42 42 40 38 39 42 43 41 41 44 47 47 48 49 51 53 55 54 56 59 62 63 64 66 67 69 72 73 75 75 75 72 68 62 54 43 11 328 308 286 277
43 41 42 44 43 43 43 43 44 44 43 44 46 48 47 49 51 53 56 58 57 55 58 61 61 61 63 64 64 67 65 64 64 64 63 60 55 48 39 27 11 351 324 308
45 43 44 46 45 45 45 43 44 45 44 45 46 47 46 47 50 52 54 55 54 54 55 57 58 58 59 59 59 60 60 59 57 55 51 49 45 40 32 22 10 356 341 326
46 46 46 48 47 47 47 44 44 44 44 45 46 47 46 48 50 51 52 52 52 52 53 54 56 57 59 61 62 62 61 61 59 57 52 47 40 32 21 10 357 345 333 323
44 46 47 48 47 48 46 44 44 45 45 44 45 46 48 50 50 51 51 52 53 53 55 56 58 60 62 62 63 62 60 58 55 52 47 41 34 26 17 7 358 346 333 322
39 42 44 44 44 46 45 44 43 43 46 44 44 46 48 49 51 55 54 54 55 57 60 63 62 62 64 64 63 61 58 54 49 44 38 32 25 20 15 9 4 356 346 334
36 39 41 41 41 42 42 42 42 42 46 45 45 45 46 48 50 52 53 56 57 58 59 60 61 61 61 60 58 55 51 47 43 37 32 27 22 18 16 13 10 6 360 351
31 36 39 39 40 41 40 41 40 42 42 43 43 44 45 47 48 50 53 55 57 58 59 60 61 59 57 54 51 47 43 39 36 33 30 27 24 22 21 21 20 18 14 8
22 30 33 35 37 37 37 38 38 39 40 41 41 42 44 45 45 47 50 52 55 57 58 59 59 58 55 50 44 41 38 35 34 33 31 29 26 26 26 26 25 23 21 18
5 17 22 26 30 32 32 34 35 36 37 38 38 40 42 43 42 44 46 48 49 52 54 55 54 53 50 44 40 38 37 35 35 34 32 29 28 27 26 27 27 26 26 26
330 347 359 9 18 23 26 28 31 32 33 34 34 35 37 39 39 40 41 43 45 46 49 49 47 46 43 40 39 38 37 36 35 34 33 31 30 30 31 30 30 31 32 32
297 307 322 340 353 2 12 19 24 28 30 31 31 31 32 33 34 34 35 37 39 40 42 42 41 40 39 38 38 38 37 36 35 34 34 32 32 33 32 31 32 33 33 34
286 297 308 318 329 338 348 360 11 18 23 26 28 28 28 28 29 28 29 30 32 32 34 34 34 34 33 33 34 36 36 36 35 34 33 32 31 31 31 30 31 32 33 34
Height
5897 5895 5893 5891 5889 5887 5885 5883 5882 5879 5876 5875 5873 5871 5868 5864 5862 5860 5859 5859 5859 5860 5861 5862 5863 5863 5864 5865 5866 5867 5868 5870 5872 5873 5875 5877 5878 5878 5878 5877 5876 5876 5877 5876
5894 5891 5888 5886 5883 5880 5878 5877 5875 5873 5869 5867 5863 5860 5857 5855 5852 5851 5850 5849 5849 5849 5850 5851 5852 5852 5853 5854 5855 5856 5858 5859 5861 5863 5865 5867 5868 5869 5870 5869 5867 5867 5867 5868
5889 5887 5883 5881 5878 5876 5873 5871 5869 5867 5864 5859 5856 5852 5849 5845 5843 5841 5839 5837 5836 5836 5837 5838 5839 5841 5842 5842 5844 5845 5847 5849 5851 5852 5854 5856 5858 5859 5860 5860 5859 5858 5857 5858
5885 5882 5879 5877 5874 5871 5868 5865 5862 5859 5857 5853 5850 5844 5840 5836 5833 5830 5828 5825 5824 5823 5824 5824 5826 5828 5829 5831 5832 5834 5836 5838 5840 5842 5844 5845 5847 5849 5850 5850 5849 5849 5846 5846
5882 5878 5875 5872 5870 5866 5863 5859 5857 5854 5850 5846 5842 5837 5833 5828 5824 5820 5817 5815 5813 5812 5812 5812 5814 5816 5817 5819 5821 5824 5826 5828 5830 5832 5834 5836 5838 5840 5841 5842 5842 5842 5840 5838
5879 5875 5872 5869 5865 5862 5859 5855 5852 5848 5844 5840 5835 5830 5825 5819 5815 5811 5808 5805 5803 5803 5803 5802 5803 5805 5808 5809 5812 5814 5816 5818 5820 5822 5824 5826 5829 5831 5833 5834 5835 5835 5835 5834
5877 5873 5869 5865 5861 5858 5855 5852 5848 5843 5839 5835 5830 5824 5819 5812 5807 5803 5800 5798 5796 5795 5795 5795 5796 5798 5799 5802 5804 5806 5808 5810 5812 5814 5816 5818 5820 5822 5824 5826 5827 5828 5827 5827
5875 5871 5867 5862 5859 5856 5852 5849 5845 5841 5835 5831 5825 5820 5815 5808 5802 5797 5794 5791 5790 5789 5788 5789 5790 5791 5793 5795 5796 5798 5800 5802 5803 5806 5808 5810 5812 5814 5816 5817 5818 5819 5819 5819
5872 5868 5864 5860 5857 5853 5849 5845 5841 5837 5832 5828 5823 5818 5812 5805 5800 5795 5791 5788 5786 5784 5784 5784 5784 5785 5786 5787 5789 5790 5792 5793 5795 5797 5799 5802 5804 5806 5807 5808 5809 5810 5810 5810
5871 5867 5863 5859 5855 5852 5848 5843 5839 5835 5831 5826 5822 5817 5812 5806 5801 5795 5791 5788 5785 5783 5781 5780 5780 5780 5780 5781 5782 5783 5784 5785 5788 5790 5792 5794 5796 5798 5799 5800 5800 5801 5801 5801
5870 5867 5864 5860 5855 5851 5847 5843 5839 5835 5831 5827 5822 5819 5812 5807 5802 5797 5793 5789 5786 5783 5782 5780 5779 5778 5777 5777 5777 5777 5778 5779 5781 5783 5785 5787 5789 5790 5791 5792 5792 5793 5792 5793
5871 5868 5864 5860 5856 5851 5848 5844 5840 5837 5832 5828 5823 5822 5813 5809 5805 5800 5796 5793 5789 5787 5784 5782 5780 5779 5778 5777 5777 5776 5776 5777 5777 5779 5780 5782 5783 5784 5785 5785 5785 5785 5785 5785
5872 5869 5866 5861 5859 5855 5850 5846 5842 5838 5835 5830 5826 5824 5817 5813 5809 5804 5801 5798 5795 5792 5789 5786 5784 5782 5781 5780 5779 5778 5777 5777 5777 5777 5778 5779 5780 5781 5781 5781 5781 5781 5781 5781
5874 5871 5868 5865 5860 5856 5853 5849 5845 5841 5838 5833 5829 5825 5821 5817 5814 5810 5806 5803 5800 5797 5795 5792 5790 5788 5786 5784 5783 5782 5781 5780 5780 5780 5780 5780 5780 5780 5780 5780 5780 5779 5779 5778
5877 5873 5869 5866 5863 5859 5856 5852 5848 5844 5841 5838 5834 5830 5827 5823 5819 5816 5812 5809 5806 5803 5800 5798 5796 5794 5792 5790 5789 5787 5786 5785 5785 5784 5783 5783 5782 5782 5781 5780 5780 5779 5778 5777
5880 5877 5873 5870 5866 5863 5859 5855 5851 5848 5845 5841 5838 5835 5831 5828 5824 5821 5818 5814 5811 5808 5806 5804 5801 5799 5797 5795 5794 5792 5791 5790 5789 5788 5787 5786 5784 5783 5782 5781 5779 5778 5776 5775
5883 5880 5877 5874 5870 5866 5863 5859 5855 5851 5848 5845 5842 5840 5835 5832 5829 5826 5823 5819 5816 5813 5811 5808 5806 5804 5802 5800 5798 5797 5796 5794 5793 5791 5790 5788 5787 5785 5783 5781 5779 5777 5775 5773
5887 5883 5880 5877 5874 5869 5868 5861 5858 5855 5852 5849 5846 5843 5840 5837 5834 5830 5827 5824 5821 5818 5816 5813 5811 5809 5807 5805 5803 5802 5800 5798 5797 5795 5793 5791 5789 5786 5784 5781 5778 5775 5773 5770
5890 5886 5883 5879 5876 5872 5869 5865 5861 5858 5855 5853 5850 5846 5843 5840 5837 5834 5831 5828 5825 5823 5821 5818 5816 5814 5812 5810 5808 5806 5805 5803 5800 5798 5796 5793 5790 5787 5784 5780 5777 5774 5770 5766
5892 5889 5886 5882 5879 5876 5874 5869 5864 5862 5859 5856 5853 5850 5847 5844 5841 5839 5835 5832 5830 5827 5825 5823 5821 5819 5817 5815 5813 5811 5809 5806 5804 5801 5798 5795 5792 5788 5784 5781 5777 5773 5768 5764
5894 5891 5888 5885 5882 5879 5876 5871 5868 5866 5863 5859 5856 5853 5850 5847 5845 5842 5839 5836 5834 5832 5830 5828 5826 5824 5822 5820 5817 5815 5812 5810 5807 5804 5801 5797 5793 5790 5785 5781 5777 5773 5768 5763
5895 5893 5890 5887 5884 5883 5878 5874 5871 5869 5864 5861 5858 5855 5853 5850 5847 5845 5842 5840 5838 5836 5834 5832 5830 5828 5826 5823 5821 5818 5816 5813 5810 5806 5803 5799 5796 5792 5787 5783 5779 5774 5769 5764
5895 5893 5891 5889 5888 5884 5880 5877 5874 5870 5867 5863 5860 5857 5855 5852 5850 5848 5845 5843 5841 5839 5837 5835 5833 5831 5829 5827 5824 5822 5819 5815 5812 5809 5805 5802 5798 5794 5790 5785 5781 5776 5771 5766
5894 5892 5891 5889 5886 5884 5881 5878 5875 5872 5869 5866 5863 5860 5857 5855 5852 5850 5848 5846 5844 5842 5840 5838 5836 5834 5832 5830 5827 5825 5822 5818 5815 5812 5808 5805 5801 5797 5793 5788 5784 5780 5775 5770
5893 5891 5889 5888 5886 5884 5882 5879 5877 5874 5871 5868 5865 5862 5859 5857 5854 5852 5850 5848 5846 5844 5842 5840 5839 5837 5835 5832 5830 5827 5824 5821 5818 5814 5811 5808 5804 5800 5796 5792 5788 5783 5779 5774
5891 5890 5888 5887 5885 5884 5882 5880 5877 5875 5872 5870 5867 5864 5861 5858 5856 5853 5851 5849 5847 5845 5844 5842 5840 5839 5837 5834 5832 5830 5827 5824 5821 5817 5814 5811 5807 5804 5800 5796 5792 5787 5783 5778